Location: Oshawa
(43.9000°N, 78.8670°W)
Time: 22:54:55
(UTC-04:00)

Courier 1B - All Passes

Search period start: 23 July 2016 00:00
Search period end: 02 August 2016 00:00
Orbit: 962 x 1209 km, 28.3° (Epoch: 23 July)

Date Brightness Start Highest point End Pass type
(mag) Time Alt. Az. Time Alt. Az. Time Alt. Az.
23 Jul - 16:41:05 10° SSW 16:44:47 15° SSE 16:48:23 10° SE daylight
23 Jul - 18:32:44 10° SW 18:37:48 21° S 18:42:40 10° SE daylight
23 Jul - 20:26:21 10° SW 20:30:47 18° SSW 20:35:05 10° SSE daylight
24 Jul - 15:48:32 10° S 15:51:15 12° SSE 15:53:57 10° SE daylight
24 Jul - 17:39:12 10° SW 17:44:16 20° S 17:49:09 10° SE daylight
24 Jul - 19:32:25 10° SW 19:37:18 20° S 19:42:01 10° SE daylight
24 Jul - 21:28:00 10° SW 21:30:08 12° SSW 21:32:14 10° S visible
25 Jul - 16:45:46 10° SSW 16:50:43 19° S 16:55:29 10° SE daylight
25 Jul - 18:38:35 10° SW 18:43:47 22° S 18:48:48 10° SE daylight
25 Jul - 20:33:10 10° SW 20:36:42 15° SSW 20:40:10 10° SSE daylight
26 Jul - 15:52:31 10° SSW 15:57:09 17° SSE 16:01:39 10° SE daylight
26 Jul - 17:44:50 10° SW 17:50:15 22° S 17:55:27 10° SE daylight
26 Jul - 19:38:52 10° SW 19:43:15 17° SSW 19:47:30 10° SSE daylight
27 Jul - 14:59:31 10° SSW 15:03:35 15° SSE 15:07:33 10° SE daylight
27 Jul - 16:51:09 10° SW 16:56:40 22° S 17:01:58 10° SE daylight
27 Jul - 18:44:46 10° SW 18:49:45 20° S 18:54:33 10° SSE daylight
28 Jul - 14:06:58 10° S 14:10:01 13° SSE 14:13:01 10° SE daylight
28 Jul - 15:57:36 10° SW 16:03:05 22° S 16:08:22 10° SE daylight
28 Jul - 17:50:48 10° SW 17:56:13 22° S 18:01:24 10° SE daylight
28 Jul - 19:46:01 10° SW 19:49:07 13° SSW 19:52:10 10° S daylight
29 Jul - 15:04:11 10° SSW 15:09:28 20° SSE 15:14:37 10° SE daylight
29 Jul - 16:56:57 10° SW 17:02:38 23° S 17:08:06 10° SE daylight
29 Jul - 18:51:24 10° SW 18:55:39 16° SSW 18:59:46 10° SSE daylight
30 Jul - 14:10:59 10° SSW 14:15:52 18° SSE 14:20:39 10° SE daylight
30 Jul - 16:03:11 10° SW 16:09:01 24° S 16:14:39 10° SE daylight
30 Jul - 17:57:08 10° SW 18:02:08 19° SSW 18:06:57 10° SSE daylight
31 Jul - 13:18:03 10° SSW 13:22:16 15° SSE 13:26:26 10° SE daylight
31 Jul - 15:09:33 10° SW 15:15:23 23° S 15:21:04 10° SE daylight
31 Jul - 17:03:05 10° WSW 17:08:34 22° S 17:13:52 10° SE daylight
31 Jul - 18:59:06 10° SW 19:01:28 12° SSW 19:03:49 10° S daylight
01 Aug - 12:25:41 10° S 12:28:41 12° SSE 12:31:41 10° SE daylight
01 Aug - 14:16:03 10° SW 14:21:45 22° S 14:27:21 10° ESE daylight
01 Aug - 16:09:08 10° SW 16:14:58 23° S 16:20:37 10° SE daylight
01 Aug - 18:04:01 10° SW 18:07:59 15° SSW 18:11:50 10° SSE daylight
